SBI7520 UTAA-HELX

Flight info

Callsign SBI7520
Flight time N/A
Altitude 36000
Route UTAA N0448F360 RIKOP L720 BRD B451 DHN B411 ASH V14 TBK Y333 GEPAG Q510 PASAM N316 HGD R650 ASRAB HELX
Aircraft B738/M-SDGIWZ/S

Departure

Time 2026-04-14 22:48
Airport Ashgabat International Airport (UTAA)

Arrival

Time N/A
Airport Luxor International Airport (HELX)
Time Latitude Longitude Altitude Speed Heading
2026-04-14 21:41 37.96565 58.37283 699 ft 0 kts 218°
2026-04-14 22:45 37.96571 58.37289 699 ft 2 kts 218°
2026-04-14 22:45 37.96593 58.37310 699 ft 5 kts 218°
2026-04-14 22:45 37.96616 58.37309 699 ft 5 kts 114°
2026-04-14 22:46 37.96616 58.37307 699 ft 5 kts 114°
2026-04-14 22:46 37.96587 58.37394 699 ft 14 kts 107°
2026-04-14 22:46 37.96661 58.37504 699 ft 22 kts 34°
2026-04-14 22:46 37.96825 58.37523 699 ft 26 kts 341°
2026-04-14 22:47 37.97017 58.37444 699 ft 30 kts 340°
2026-04-14 22:47 37.97202 58.37302 699 ft 30 kts 339°
2026-04-14 22:47 37.97351 58.37248 699 ft 20 kts 307°
2026-04-14 22:47 37.97523 58.36874 699 ft 85 kts 299°
2026-04-14 22:48 37.97919 58.35980 699 ft 147 kts 299°
2026-04-14 22:48 37.98511 58.34659 786 ft 189 kts 300°
2026-04-14 22:48 37.99218 58.33144 1176 ft 213 kts 302°
2026-04-14 22:48 38.00226 58.31707 1924 ft 219 kts 322°
2026-04-14 22:49 38.01375 58.30437 2523 ft 234 kts 313°
2026-04-14 22:49 38.02383 58.28674 3002 ft 253 kts 302°
2026-04-14 22:49 38.03326 58.26777 3651 ft 263 kts 309°
2026-04-14 22:49 38.04781 58.25378 4336 ft 270 kts 342°
2026-04-14 22:50 38.06628 58.25241 5177 ft 271 kts 16°
2026-04-14 22:50 38.08218 58.26385 5892 ft 273 kts 50°
2026-04-14 22:50 38.09106 58.28460 6694 ft 271 kts 75°
2026-04-14 22:50 38.09515 58.30808 7361 ft 277 kts 90°
2026-04-14 22:51 38.09063 58.33147 8043 ft 276 kts 124°
2026-04-14 22:51 38.07895 58.35013 8927 ft 272 kts 132°
2026-04-14 22:51 38.06694 58.36903 9402 ft 285 kts 128°
2026-04-14 22:51 38.05540 58.38918 10218 ft 284 kts 128°
2026-04-14 22:52 38.04346 58.41013 10460 ft 305 kts 128°
2026-04-14 22:52 38.03055 58.43298 10580 ft 329 kts 127°
2026-04-14 22:52 38.01703 58.45715 10824 ft 346 kts 127°
2026-04-14 22:52 38.00301 58.48184 11394 ft 351 kts 130°
2026-04-14 22:53 37.98544 58.50378 11900 ft 354 kts 145°
2026-04-14 22:53 37.96458 58.52012 12487 ft 355 kts 157°
2026-04-14 22:53 37.94128 58.52891 13030 ft 354 kts 174°
2026-04-14 22:53 37.91672 58.52974 13677 ft 352 kts 186°
2026-04-14 22:54 37.89294 58.52446 14133 ft 355 kts 200°
2026-04-14 22:54 37.87136 58.50996 14766 ft 351 kts 217°
2026-04-14 22:54 37.85260 58.49047 15250 ft 354 kts 225°
2026-04-14 22:54 37.83567 58.46763 15769 ft 356 kts 229°
2026-04-14 22:55 37.81928 58.44457 16272 ft 358 kts 228°
2026-04-14 22:55 37.80233 58.42127 16732 ft 361 kts 228°
2026-04-14 22:55 37.78527 58.39781 17222 ft 363 kts 228°
2026-04-14 22:55 37.76821 58.37425 17679 ft 365 kts 228°
2026-04-14 22:56 37.75102 58.35051 18122 ft 367 kts 228°
2026-04-14 22:56 37.73384 58.32682 18546 ft 369 kts 229°
2026-04-14 22:56 37.71664 58.30310 18955 ft 372 kts 229°
2026-04-14 22:56 37.69940 58.27874 19358 ft 373 kts 232°
2026-04-14 22:57 37.68414 58.25189 19743 ft 375 kts 239°
2026-04-14 22:57 37.67255 58.22263 20119 ft 376 kts 249°
2026-04-14 22:57 37.66496 58.19127 20493 ft 377 kts 256°
2026-04-14 22:57 37.65895 58.15916 20879 ft 378 kts 256°
2026-04-14 22:58 37.65267 58.12671 21192 ft 381 kts 256°
2026-04-14 22:58 37.64629 58.09440 21541 ft 383 kts 256°
2026-04-14 22:58 37.63994 58.06181 21866 ft 384 kts 256°
2026-04-14 22:58 37.63358 58.02904 22192 ft 386 kts 256°
2026-04-14 22:59 37.62719 57.99609 22504 ft 388 kts 256°
2026-04-14 22:59 37.62082 57.96325 22799 ft 389 kts 256°
2026-04-14 22:59 37.61438 57.93008 23094 ft 391 kts 256°
2026-04-14 22:59 37.60793 57.89688 23377 ft 393 kts 256°
2026-04-14 23:00 37.60136 57.86311 23659 ft 394 kts 256°
2026-04-14 23:00 37.59488 57.82981 23935 ft 395 kts 256°
2026-04-14 23:00 37.58831 57.79612 24195 ft 397 kts 256°
2026-04-14 23:00 37.58173 57.76237 24448 ft 398 kts 257°
2026-04-14 23:01 37.57512 57.72856 24706 ft 399 kts 257°
2026-04-14 23:01 37.56846 57.69452 24928 ft 401 kts 257°
2026-04-14 23:01 37.56174 57.66029 25170 ft 402 kts 257°
2026-04-14 23:01 37.55504 57.62618 25410 ft 403 kts 257°
2026-04-14 23:02 37.54830 57.59193 25615 ft 405 kts 257°
2026-04-14 23:02 37.54154 57.55763 25842 ft 406 kts 257°
2026-04-14 23:02 37.53471 57.52300 26044 ft 407 kts 257°
2026-04-14 23:02 37.52784 57.48823 26246 ft 409 kts 257°
2026-04-14 23:03 37.52095 57.45346 26452 ft 410 kts 257°
2026-04-14 23:03 37.51408 57.41885 26642 ft 411 kts 257°
2026-04-14 23:03 37.50718 57.38413 26861 ft 411 kts 257°
2026-04-14 23:03 37.49922 57.34933 27022 ft 413 kts 252°
2026-04-14 23:04 37.48891 57.31564 27224 ft 415 kts 246°
2026-04-14 23:04 37.47546 57.28382 27417 ft 417 kts 241°
2026-04-14 23:04 37.46076 57.25245 27594 ft 418 kts 241°
2026-04-14 23:04 37.44624 57.22076 27767 ft 419 kts 242°
2026-04-14 23:05 37.43179 57.18899 27941 ft 420 kts 242°
2026-04-14 23:05 37.41719 57.15722 28060 ft 422 kts 242°
2026-04-14 23:05 37.40245 57.12544 28252 ft 422 kts 241°
2026-04-14 23:05 37.38756 57.09341 28414 ft 423 kts 241°
2026-04-14 23:06 37.37284 57.06182 28598 ft 423 kts 241°
2026-04-14 23:06 37.35785 57.02970 28716 ft 424 kts 241°
2026-04-14 23:06 37.34312 56.99818 28966 ft 422 kts 241°
2026-04-14 23:06 37.32825 56.96637 29154 ft 422 kts 241°
2026-04-14 23:07 37.31338 56.93457 29288 ft 422 kts 242°
2026-04-14 23:07 37.29865 56.90306 29434 ft 423 kts 242°
2026-04-14 23:07 37.28364 56.87118 29618 ft 422 kts 241°
2026-04-14 23:08 37.25375 56.80815 29824 ft 424 kts 241°
2026-04-14 23:08 37.23871 56.77631 30070 ft 421 kts 241°
2026-04-14 23:08 37.22403 56.74508 30311 ft 419 kts 242°
2026-04-14 23:09 37.19443 56.68206 30500 ft 421 kts 242°
2026-04-14 23:09 37.16445 56.61908 30830 ft 419 kts 241°
2026-04-14 23:09 37.14963 56.58801 31019 ft 417 kts 242°
2026-04-14 23:10 37.13472 56.55651 31089 ft 419 kts 242°
2026-04-14 23:10 37.12005 56.52538 31202 ft 419 kts 242°
2026-04-14 23:10 37.10515 56.49389 31282 ft 420 kts 242°
2026-04-14 23:10 37.09040 56.46281 31393 ft 420 kts 242°
2026-04-14 23:11 37.07538 56.43121 31490 ft 420 kts 242°
2026-04-14 23:11 37.06063 56.40025 31648 ft 419 kts 242°
2026-04-14 23:11 37.04567 56.36893 31876 ft 416 kts 242°
2026-04-14 23:11 37.03088 56.33790 31981 ft 416 kts 242°
2026-04-14 23:12 37.01620 56.30701 32073 ft 417 kts 242°
2026-04-14 23:12 37.00128 56.27576 32200 ft 416 kts 241°
2026-04-14 23:12 36.98650 56.24511 32281 ft 417 kts 241°
2026-04-14 23:12 36.97138 56.21397 32472 ft 415 kts 241°
2026-04-14 23:13 36.95670 56.18359 32653 ft 413 kts 241°
2026-04-14 23:13 36.94196 56.15271 32757 ft 413 kts 242°
2026-04-14 23:13 36.92724 56.12184 32885 ft 412 kts 242°
2026-04-14 23:13 36.91261 56.09143 33068 ft 410 kts 241°
2026-04-14 23:14 36.89777 56.06080 33137 ft 411 kts 241°
2026-04-14 23:14 36.86831 56.00005 33318 ft 411 kts 242°
2026-04-14 23:15 36.83917 55.93921 33519 ft 410 kts 242°
2026-04-14 23:15 36.80968 55.87845 33672 ft 411 kts 241°
2026-04-14 23:16 36.78014 55.81780 33855 ft 410 kts 241°
2026-04-14 23:16 36.75081 55.75700 34050 ft 409 kts 241°
2026-04-14 23:17 36.72131 55.69664 34210 ft 408 kts 241°
2026-04-14 23:17 36.69187 55.63668 34379 ft 407 kts 241°
2026-04-14 23:18 36.66257 55.57621 34523 ft 407 kts 241°
2026-04-14 23:18 36.64809 55.54638 34605 ft 406 kts 242°
2026-04-14 23:18 36.61886 55.48617 34754 ft 406 kts 241°
2026-04-14 23:19 36.58962 55.42660 34890 ft 405 kts 241°
2026-04-14 23:19 36.56003 55.36687 35027 ft 404 kts 241°
2026-04-14 23:20 36.53104 55.30766 35160 ft 404 kts 241°
2026-04-14 23:20 36.50192 55.24809 35297 ft 404 kts 241°
2026-04-14 23:21 36.47268 55.18889 35452 ft 403 kts 240°
2026-04-14 23:21 36.44320 55.13005 35602 ft 402 kts 240°
2026-04-14 23:22 36.41406 55.07066 35749 ft 401 kts 241°
2026-04-14 23:22 36.38578 55.01145 35884 ft 400 kts 242°
2026-04-14 23:23 36.35765 54.95245 36014 ft 399 kts 241°
2026-04-14 23:23 36.32923 54.89363 36150 ft 398 kts 241°
2026-04-14 23:24 36.30076 54.83464 36155 ft 400 kts 241°
2026-04-14 23:24 36.27234 54.77572 36153 ft 402 kts 241°
2026-04-14 23:25 36.24401 54.71646 36156 ft 402 kts 242°
2026-04-14 23:25 36.21540 54.65707 36161 ft 402 kts 241°
2026-04-14 23:26 36.18648 54.59771 36167 ft 402 kts 241°
2026-04-14 23:26 36.15796 54.53851 36175 ft 402 kts 242°
2026-04-14 23:27 36.12943 54.47928 36180 ft 401 kts 241°
2026-04-14 23:27 36.10066 54.42035 36181 ft 401 kts 241°
2026-04-14 23:28 36.07189 54.36163 36183 ft 401 kts 241°
2026-04-14 23:28 36.04332 54.30258 36183 ft 402 kts 241°
2026-04-14 23:29 36.01481 54.24380 36182 ft 401 kts 241°
2026-04-14 23:29 35.98598 54.18469 36182 ft 401 kts 241°
2026-04-14 23:30 35.95728 54.12606 36182 ft 401 kts 240°
2026-04-14 23:30 35.92836 54.06745 36182 ft 402 kts 240°
2026-04-14 23:31 35.89950 54.00865 36182 ft 401 kts 241°
2026-04-14 23:31 35.87074 53.94960 36182 ft 401 kts 241°
2026-04-14 23:32 35.84185 53.89123 36181 ft 401 kts 240°
2026-04-14 23:32 35.81270 53.83281 36182 ft 402 kts 240°
2026-04-14 23:33 35.78366 53.77409 36182 ft 401 kts 240°
2026-04-14 23:33 35.75480 53.71577 36182 ft 401 kts 240°
2026-04-14 23:34 35.72569 53.65723 36183 ft 401 kts 240°
2026-04-14 23:34 35.69667 53.59903 36182 ft 401 kts 240°
2026-04-14 23:35 35.66757 53.54043 36181 ft 402 kts 241°
2026-04-14 23:35 35.63855 53.48193 36181 ft 401 kts 240°
2026-04-14 23:36 35.60954 53.42398 36182 ft 402 kts 240°
2026-04-14 23:36 35.58018 53.36576 36183 ft 402 kts 240°
2026-04-14 23:37 35.55086 53.30725 36181 ft 401 kts 240°
2026-04-14 23:37 35.52203 53.24925 36183 ft 401 kts 240°
2026-04-14 23:38 35.49280 53.19107 36182 ft 402 kts 240°
2026-04-14 23:38 35.46332 53.13288 36181 ft 401 kts 240°
2026-04-14 23:39 35.43420 53.07499 36181 ft 401 kts 240°
2026-04-14 23:39 35.40483 53.01689 36182 ft 401 kts 240°
2026-04-14 23:40 35.37547 52.95896 36181 ft 401 kts 240°
2026-04-14 23:40 35.34623 52.90113 36183 ft 402 kts 240°
2026-04-14 23:41 35.31685 52.84280 36181 ft 401 kts 240°
2026-04-14 23:41 35.28775 52.78522 36181 ft 398 kts 240°
2026-04-14 23:42 35.26051 52.72656 36179 ft 398 kts 249°
2026-04-14 23:42 35.24573 52.66165 36184 ft 398 kts 258°
2026-04-14 23:43 35.23346 52.59568 36182 ft 397 kts 257°
2026-04-14 23:43 35.22113 52.53009 36181 ft 396 kts 258°
2026-04-14 23:44 35.20963 52.46467 36184 ft 396 kts 259°
2026-04-14 23:44 35.19805 52.39854 36183 ft 398 kts 258°
2026-04-14 23:45 35.18625 52.33266 36180 ft 397 kts 258°
2026-04-14 23:45 35.17458 52.26722 36182 ft 397 kts 258°
2026-04-14 23:46 35.16283 52.20142 36181 ft 395 kts 258°
2026-04-14 23:46 35.15113 52.13584 36183 ft 395 kts 258°
2026-04-14 23:47 35.13888 52.07045 36182 ft 397 kts 257°
2026-04-14 23:47 35.12698 52.00493 36180 ft 397 kts 258°
2026-04-14 23:48 35.11537 51.93912 36182 ft 397 kts 258°
2026-04-14 23:48 35.10820 51.87284 36185 ft 396 kts 270°
2026-04-14 23:49 35.11158 51.80558 36184 ft 398 kts 272°
2026-04-14 23:49 35.11489 51.73830 36179 ft 396 kts 272°
2026-04-14 23:50 35.11811 51.67115 36183 ft 397 kts 272°
2026-04-14 23:50 35.12135 51.60417 36180 ft 397 kts 272°
2026-04-14 23:51 35.12501 51.53670 36181 ft 398 kts 273°
2026-04-14 23:51 35.12857 51.46990 36182 ft 396 kts 272°
2026-04-14 23:52 35.13222 51.40253 36183 ft 396 kts 273°
2026-04-14 23:52 35.13582 51.33544 36182 ft 398 kts 272°
2026-04-14 23:53 35.13940 51.26821 36182 ft 397 kts 272°
2026-04-14 23:53 35.14347 51.20100 36180 ft 397 kts 272°
2026-04-14 23:54 35.14376 51.13369 36183 ft 397 kts 268°